Wind_Speed
8 6 6 7 7 7 7 7 7 7 7 7 7 8 8 9 8 9 10 12 11 12 12 12 14 15 14 14 12 11 10 10 10 9 8 7 7 6 6 5 5 4 5
8 7 7 7 7 8 8 7 7 7 7 7 7 8 9 9 10 10 11 12 13 12 12 12 13 15 15 16 14 14 13 10 9 9 9 9 8 8 7 7 7 6 6
9 8 8 7 7 8 8 9 9 10 10 9 9 9 9 10 10 12 14 15 16 17 15 14 14 14 14 15 13 15 16 15 12 8 9 10 10 9 9 9 8 8 8
10 9 9 9 8 8 9 9 9 9 10 10 10 10 11 12 13 13 15 16 18 18 19 18 15 15 15 16 15 14 17 17 18 16 12 11 11 11 11 11 10 10 10
10 10 9 9 9 10 11 11 11 11 12 12 14 13 14 15 15 15 16 17 17 21 22 19 22 21 20 19 18 16 17 19 19 19 17 15 12 10 11 13 13 13 13
12 12 11 11 12 13 13 14 15 15 15 16 16 17 18 20 19 17 17 17 19 17 21 21 20 21 19 19 20 20 19 19 20 21 20 17 15 13 11 11 14 14 15
13 15 15 13 14 15 16 16 17 19 19 20 20 23 21 17 17 20 19 15 13 18 16 16 13 12 13 16 16 18 20 20 20 21 22 22 21 17 17 15 14 15 16
18 19 19 18 16 18 20 18 18 21 21 20 19 20 18 19 16 18 17 13 15 14 19 17 16 14 14 14 15 17 17 19 21 21 21 22 24 26 22 21 18 16 15
20 21 22 23 24 24 25 25 25 24 24 24 23 21 13 11 10 12 12 16 18 17 16 18 15 17 18 17 18 17 17 18 20 22 23 23 22 22 26 25 19 21 16
22 23 24 24 26 27 28 29 28 28 25 25 25 25 26 26 18 18 19 17 16 16 16 17 15 15 18 17 18 21 21 20 20 21 23 26 25 24 21 26 26 22 17
22 23 24 26 26 27 27 27 27 28 28 28 27 24 25 26 26 24 21 20 15 18 15 13 15 15 16 17 18 16 15 16 17 19 21 24 26 23 24 23 32 23 22
23 24 24 24 24 23 24 24 24 24 24 24 24 23 25 22 21 22 26 24 20 15 13 7 17 19 19 18 17 16 16 18 19 23 23 22 21 19 23 22 26 34 26
22 23 23 24 24 25 26 26 26 27 27 25 23 23 20 22 24 23 25 18 19 18 15 10 17 17 17 17 15 15 15 17 18 19 19 20 22 24 27 25 26 24 33
22 24 24 24 25 25 26 26 26 26 24 20 19 20 20 22 21 23 25 23 20 13 15 13 18 19 16 14 14 15 18 18 21 21 21 21 21 22 23 24 25 26 29
23 23 23 23 24 23 23 22 21 19 18 20 17 17 17 19 18 19 22 19 16 12 13 11 19 18 16 16 17 19 19 20 21 24 23 20 21 22 25 24 24 24 20
22 22 21 21 21 20 19 18 18 18 19 17 13 13 9 15 15 16 15 15 17 16 13 16 21 21 20 20 22 23 22 24 20 21 17 14 16 17 17 16 14 14 17
21 21 20 19 19 17 16 15 15 14 15 14 14 14 14 15 17 18 19 17 17 15 16 20 21 19 20 21 23 23 20 15 16 14 13 15 7 5 7 9 9 12 15
21 21 20 19 18 17 16 15 14 12 11 11 12 12 12 12 12 12 14 14 15 15 16 14 17 17 20 21 19 15 13 12 11 11 12 10 8 9 10 11 12 14 18
21 21 20 20 19 17 17 16 15 14 13 11 12 12 12 13 13 12 12 14 14 15 14 15 17 17 17 15 11 10 10 9 10 11 12 13 12 13 17 17 18 18 21
20 19 19 19 17 16 16 15 16 15 14 13 13 12 12 11 11 11 10 10 10 11 11 12 13 12 10 9 9 9 10 10 11 12 13 13 14 14 16 18 21 22 22
18 19 18 17 17 17 16 14 14 14 12 11 11 10 10 9 8 8 6 7 7 8 8 7 7 7 8 9 8 9 9 10 12 11 11 12 13 14 16 16 18 19 19
18 17 16 16 15 14 13 13 12 10 10 10 7 6 5 5 5 5 5 7 8 8 8 8 7 5 9 10 9 10 10 10 5 13 10 11 14 14 16 18 20 19 20
15 15 14 14 13 11 11 11 10 8 7 7 6 5 5 5 6 6 6 7 7 8 8 9 8 9 9 12 11 10 10 9 9 13 14 10 10 9 11 13 14 15 16
13 14 13 13 12 10 9 10 10 9 7 7 7 5 5 7 7 6 7 8 7 8 7 8 10 10 11 11 11 10 10 10 8 10 10 6 6 6 9 10 8 8 9
13 12 12 13 11 10 11 10 8 7 7 7 6 6 7 7 6 8 7 7 8 8 7 8 9 10 10 10 9 10 8 7 4 5 9 6 7 10 9 8 7 5 6
13 12 13 12 13 12 11 9 8 6 7 7 7 7 7 8 8 7 7 8 7 9 8 7 7 7 8 7 7 7 7 6 6 4 8 7 9 10 6 7 4 11 11
Wind_Direction
226 216 222 228 226 228 230 238 249 256 272 273 277 285 283 284 284 284 291 299 299 305 304 302 298 307 307 308 308 310 313 316 315 307 303 299 297 295 293 290 289 287 286
226 230 225 230 234 238 238 242 245 258 262 272 274 273 274 283 287 281 288 293 301 299 302 298 291 294 298 305 306 308 310 309 310 306 294 290 289 286 283 280 279 279 278
227 228 227 238 245 246 244 246 251 256 260 265 271 274 274 275 274 278 291 294 294 299 294 293 291 287 288 290 289 295 303 307 309 310 310 293 285 279 275 273 274 276 276
229 229 232 238 240 247 252 251 255 259 264 266 269 271 274 280 278 277 280 286 290 291 291 293 286 285 282 281 278 281 285 297 305 305 307 308 299 284 278 273 268 265 265
235 238 237 244 245 250 252 259 258 259 261 263 267 268 268 267 270 273 280 284 283 282 285 283 289 282 277 278 276 270 266 275 286 295 304 307 306 306 291 283 279 271 265
244 244 244 247 247 251 254 254 258 259 261 265 270 271 273 275 275 276 276 273 272 276 278 290 282 284 283 275 273 271 267 264 266 278 284 285 287 292 300 296 284 275 264
245 253 252 247 249 250 253 261 263 266 268 276 276 278 292 289 278 283 280 278 278 275 293 298 298 295 289 286 281 269 265 264 262 263 269 278 279 282 290 293 294 285 279
254 255 260 260 251 256 263 263 265 264 262 263 265 274 288 288 272 274 264 255 278 273 286 288 287 293 290 287 287 289 275 262 262 259 261 265 269 279 275 278 276 272 273
255 258 262 266 266 264 266 265 266 268 268 272 270 269 277 268 305 264 270 279 292 287 274 285 282 284 286 283 284 280 275 268 261 258 257 260 265 265 257 256 263 267 258
264 267 269 271 273 275 273 273 273 272 270 269 270 264 264 267 274 276 273 270 287 275 277 282 277 281 284 285 283 277 276 275 271 267 264 260 261 261 266 254 257 236 244
266 269 271 273 275 275 276 276 276 276 273 270 267 263 266 265 264 266 270 275 275 279 273 282 290 285 283 291 289 288 276 278 275 276 274 268 264 269 266 257 247 239 244
272 273 274 275 276 276 276 277 277 276 277 274 272 262 259 260 266 265 264 267 264 263 266 280 288 294 296 294 286 280 283 290 282 274 273 269 266 262 258 254 263 253 252
275 275 276 275 275 274 274 275 276 277 277 274 272 271 262 259 263 265 259 261 276 264 262 264 292 285 289 283 289 289 292 291 283 275 270 266 262 262 262 262 258 263 249
268 274 276 275 275 275 276 275 275 273 274 271 263 261 262 264 262 258 265 268 251 243 262 276 278 283 281 275 289 294 296 294 288 282 274 272 270 270 271 271 267 260 255
267 272 274 275 276 275 275 274 271 268 265 269 267 263 256 262 263 263 253 244 243 247 256 267 266 282 282 277 287 294 297 296 300 293 288 280 274 273 273 272 270 253 253
272 272 273 276 278 278 276 273 270 266 260 261 256 255 248 256 253 255 263 258 260 253 250 256 266 277 278 282 285 288 291 294 293 298 301 300 292 282 272 270 267 261 254
274 273 273 273 275 275 274 272 271 268 262 255 248 251 252 254 253 252 257 258 257 259 263 264 266 267 270 275 283 290 289 286 291 294 303 299 288 252 262 244 231 256 244
272 271 271 270 270 270 266 263 263 263 261 260 258 256 258 257 259 258 256 253 255 261 257 256 266 265 267 275 284 282 283 274 275 284 290 295 263 255 244 236 254 262 242
268 268 268 268 267 266 263 260 259 257 253 254 255 255 256 257 260 257 255 255 259 263 263 265 270 270 271 275 267 275 278 277 276 276 274 280 276 258 256 257 259 261 262
264 263 263 265 266 263 260 255 254 252 249 248 250 251 252 251 251 251 249 255 257 264 267 267 271 275 278 267 269 274 279 278 277 280 280 276 277 274 269 265 265 270 271
254 259 262 263 263 261 257 252 246 244 244 242 242 245 248 250 246 240 239 241 244 251 265 271 281 283 290 292 284 284 282 284 290 288 281 278 276 277 281 277 273 271 272
257 256 258 262 260 259 251 240 236 230 235 232 226 224 217 239 255 255 262 264 265 270 263 264 272 281 284 290 291 284 286 288 283 290 286 280 278 275 273 273 275 276 272
254 255 259 259 253 246 239 226 220 213 206 204 210 217 244 269 278 285 285 270 272 272 267 259 248 253 256 271 283 282 284 290 282 284 299 301 289 288 281 283 287 281 279
245 245 249 252 230 224 219 201 194 184 197 213 226 235 251 264 273 275 277 281 285 275 272 261 257 268 268 272 275 278 282 289 297 308 316 306 300 306 304 302 308 301 298
235 237 240 235 220 210 204 198 198 195 210 226 238 249 257 270 273 275 280 285 281 278 270 267 266 268 271 273 275 278 283 293 301 285 303 305 307 314 310 301 305 296 321
227 233 235 219 206 202 203 207 212 211 226 240 253 261 268 274 284 281 280 276 277 276 284 281 275 272 277 279 277 273 276 276 274 288 287 298 306 318 321 302 300 302 306
Height
1563 1563 1565 1565 1566 1568 1568 1569 1570 1571 1571 1570 1570 1569 1569 1569 1568 1568 1567 1565 1565 1564 1563 1562 1561 1560 1560 1559 1558 1558 1557 1557 1556 1555 1555 1554 1554 1554 1554 1554 1554 1553 1554
1563 1563 1564 1564 1565 1566 1567 1568 1569 1570 1569 1569 1569 1569 1568 1567 1566 1566 1565 1564 1563 1562 1562 1561 1560 1559 1558 1556 1556 1555 1555 1555 1555 1554 1553 1553 1553 1553 1553 1553 1553 1553 1553
1561 1562 1564 1565 1565 1565 1565 1567 1567 1567 1567 1567 1567 1567 1567 1566 1565 1565 1563 1562 1561 1560 1560 1558 1557 1556 1556 1555 1554 1554 1553 1552 1552 1553 1552 1552 1551 1551 1551 1551 1552 1552 1552
1559 1560 1561 1562 1563 1565 1565 1565 1565 1565 1565 1566 1566 1565 1565 1564 1563 1562 1561 1560 1558 1556 1555 1555 1554 1554 1553 1552 1552 1552 1552 1550 1550 1550 1550 1550 1549 1549 1549 1550 1550 1550 1551
1557 1557 1559 1560 1561 1562 1563 1563 1564 1564 1564 1563 1563 1562 1561 1560 1560 1559 1558 1557 1556 1554 1552 1551 1550 1550 1549 1549 1549 1549 1549 1548 1548 1548 1548 1548 1548 1548 1548 1548 1548 1549 1549
1556 1556 1556 1558 1559 1560 1559 1560 1560 1560 1559 1559 1558 1558 1557 1555 1555 1554 1554 1553 1552 1551 1549 1547 1545 1544 1544 1544 1545 1545 1546 1546 1546 1545 1545 1545 1545 1545 1546 1546 1546 1546 1547
1553 1553 1554 1554 1555 1556 1556 1557 1556 1556 1555 1555 1554 1552 1551 1551 1550 1550 1549 1548 1548 1546 1545 1543 1542 1541 1541 1540 1540 1540 1541 1542 1543 1542 1542 1542 1542 1542 1543 1543 1543 1543 1544
1549 1550 1550 1550 1551 1551 1552 1553 1552 1551 1550 1551 1549 1549 1547 1547 1546 1545 1544 1544 1544 1543 1541 1540 1539 1538 1538 1538 1537 1536 1536 1537 1538 1539 1539 1539 1538 1537 1538 1539 1540 1541 1541
1545 1545 1546 1546 1546 1546 1546 1547 1546 1546 1544 1544 1545 1546 1544 1543 1541 1541 1540 1540 1540 1539 1538 1536 1536 1534 1534 1533 1533 1533 1532 1532 1532 1533 1533 1534 1535 1535 1534 1534 1535 1536 1537
1540 1541 1541 1541 1541 1540 1540 1540 1540 1539 1539 1538 1539 1539 1539 1539 1538 1537 1537 1536 1536 1535 1534 1532 1531 1531 1530 1529 1528 1528 1528 1528 1528 1528 1529 1529 1529 1530 1530 1530 1530 1530 1532
1535 1535 1536 1536 1535 1534 1534 1534 1534 1533 1533 1532 1532 1533 1532 1532 1533 1533 1530 1533 1533 1531 1530 1529 1528 1526 1524 1524 1523 1523 1523 1523 1523 1523 1523 1523 1523 1525 1524 1525 1524 1523 1526
1529 1530 1530 1530 1529 1528 1528 1528 1527 1527 1527 1526 1526 1526 1527 1527 1526 1527 1527 1527 1528 1529 1528 1527 1524 1523 1522 1520 1520 1519 1519 1518 1518 1518 1518 1518 1518 1518 1516 1518 1520 1516 1519
1524 1524 1525 1524 1523 1523 1523 1522 1522 1521 1521 1520 1520 1520 1520 1521 1522 1522 1522 1522 1523 1524 1524 1524 1522 1521 1519 1517 1517 1515 1515 1514 1514 1513 1513 1513 1512 1511 1511 1513 1514 1516 1514
1519 1518 1519 1519 1518 1518 1517 1516 1516 1516 1516 1515 1514 1514 1515 1516 1516 1517 1517 1518 1517 1517 1519 1521 1517 1516 1515 1515 1514 1513 1510 1510 1510 1508 1507 1508 1507 1508 1508 1508 1509 1510 1511
1514 1513 1513 1514 1513 1513 1512 1511 1511 1511 1510 1509 1509 1509 1510 1510 1511 1512 1511 1512 1513 1514 1514 1514 1514 1513 1511 1510 1511 1510 1507 1506 1505 1503 1502 1502 1502 1503 1503 1503 1503 1505 1508
1509 1508 1508 1508 1509 1508 1507 1506 1505 1505 1506 1506 1505 1506 1505 1506 1506 1508 1508 1509 1510 1510 1511 1509 1510 1509 1509 1506 1505 1505 1503 1502 1500 1499 1498 1498 1498 1498 1498 1499 1500 1501 1504
1505 1504 1503 1503 1504 1504 1504 1502 1502 1501 1502 1502 1502 1502 1502 1502 1502 1503 1506 1504 1506 1506 1506 1505 1504 1505 1504 1503 1501 1501 1499 1499 1498 1497 1496 1496 1496 1496 1496 1497 1498 1499 1501
1500 1501 1500 1500 1499 1500 1500 1499 1500 1499 1498 1498 1499 1498 1497 1498 1498 1498 1500 1498 1501 1500 1502 1501 1499 1500 1501 1499 1497 1497 1496 1496 1495 1495 1494 1493 1494 1495 1495 1496 1496 1497 1499
1495 1495 1497 1496 1496 1495 1496 1497 1497 1496 1495 1494 1497 1496 1495 1495 1495 1495 1496 1496 1496 1497 1497 1496 1496 1496 1495 1494 1494 1494 1493 1493 1492 1492 1492 1491 1491 1492 1493 1493 1494 1494 1495
1490 1490 1491 1492 1492 1491 1492 1491 1493 1492 1491 1490 1492 1493 1494 1493 1493 1493 1492 1494 1493 1494 1493 1493 1493 1493 1492 1491 1491 1492 1491 1490 1490 1490 1489 1488 1488 1487 1487 1488 1489 1489 1489
1484 1486 1486 1488 1488 1488 1487 1487 1487 1489 1489 1488 1489 1490 1490 1491 1491 1492 1489 1490 1490 1490 1491 1491 1491 1491 1489 1489 1489 1489 1489 1488 1487 1487 1486 1485 1484 1484 1483 1483 1482 1483 1484
1481 1481 1482 1484 1484 1484 1483 1483 1485 1484 1485 1487 1486 1489 1488 1489 1491 1489 1488 1488 1489 1488 1488 1489 1489 1490 1488 1490 1488 1487 1487 1486 1486 1483 1483 1483 1481 1481 1480 1479 1478 1478 1478
1478 1478 1478 1479 1481 1481 1481 1481 1481 1481 1484 1487 1487 1485 1486 1489 1488 1487 1486 1487 1486 1486 1486 1487 1486 1484 1483 1485 1486 1485 1484 1484 1483 1481 1481 1479 1478 1477 1476 1475 1475 1474 1474
1473 1476 1476 1477 1478 1479 1480 1480 1481 1479 1482 1485 1487 1484 1485 1487 1486 1485 1485 1485 1483 1484 1483 1483 1483 1480 1481 1482 1482 1482 1482 1481 1480 1479 1478 1477 1476 1475 1474 1473 1472 1471 1471
1471 1473 1474 1475 1476 1477 1479 1481 1481 1478 1480 1484 1484 1484 1484 1484 1484 1483 1482 1481 1481 1481 1481 1480 1480 1478 1478 1479 1480 1480 1479 1478 1478 1477 1475 1475 1474 1473 1472 1470 1470 1470 1469
1469 1471 1472 1472 1474 1476 1478 1480 1480 1478 1481 1483 1483 1483 1482 1482 1482 1481 1479 1479 1479 1478 1478 1477 1477 1476 1476 1476 1477 1477 1477 1477 1476 1476 1474 1475 1473 1472 1470 1469 1468 1468 1467